Location: Bottenau
(48.5138°N, 8.0462°E)
Time: 19:37:38
(UTC+00:00)

Cosmos 1745 Rocket - Pass Details

Date: 18 April 2021
Orbit: 952 x 998 km, 83.0° (Epoch: 17 May)

Event Time Altitude Azimuth Distance (km) Brightness Sun altitude
Rises 21:47:06 0° 352° (N) 3,722 8.2 -26.4°
Reaches altitude 10° 21:49:41 10° 356° (N) 2,764 7.2 -26.6°
Maximum altitude 21:55:59 64° 77° (ENE) 1,088 4.1 -27.0°
Enters shadow 21:56:33 61° 105° (ESE) 1,111 4.0 -27.1°
